星链-36032(STARLINK-36032)

导读

STARLINK-36032是美国SpaceX星链星座的卫星,于2025年11月22日发射升空,属于星链计划低轨互联网卫星组网部署的最新批次。它延续了星链卫星的设计,依托近地轨道为全球提供高速宽带互联网服务,进一步完善了星链星座的覆盖密度与服务能力,推进SpaceX全球互联网络的布局。

基本信息
目录编号:
66594
目录名称:
STARLINK-36032
国际标识:
2025-270G
轨道中心:
EARTH
卫星名称:
星链-36032
卫星全名:
星链-36032(STARLINK-36032)
卫星状态:
在轨 (已飞行286 天)
发射日期:
2025-11-22 UTC
国别 :
美国 (US)
星等 :
--
轨道信息
数据来源 国际轨道数据 AOE轨道数据
星历时间 2026-09-03T08:25:41+0800
1天前
查看轨道信息
2026-08-31T23:00:00+0800
3天前
查看轨道信息
半长轴 6861.142km 6861.247km
偏心率 0.0001332 0.000118
轨道倾角 43.003° 43.002°
近地点辐角 270.659° 252.687°
升交点赤经 134.923° 148.439°
平近点角 89.411° 253.008°
近地点 482.091km 482.3km
远地点 483.919km 483.92km
周期 94.266分钟 94.268分钟
每日圈数 15.275949 15.275599
详细信息
固有亮度:
5
最大亮度:
2.5
卫星平台:
Starlink V1.0
覆盖范围:
全球
运营商:
太空探索技术公司
运营商所在国:
美国
制造商(研发单位):
太空探索技术公司
制造商所在国:
美国
使用方式:
暂无
卫星简介
Starlink 计划是 SpaceX 推出的全球卫星互联网项目,通过发射低轨道卫星,为全球尤其是偏远地区提供高速、低延迟的互联网服务。自 2019 年起,Starlink 已部署数千颗卫星,旨在缩小全球数字鸿沟,推动互联网普及。该项目还为军事、航空等行业提供通信支持,带来广泛经济效益。
2D轨道图
3D轨道图
轨道高度分析图
轨道倾角分析图
轨道综合分析图
查看轨道综合分析图
交会数据列表
事件ID 空间交会对象 最接近时刻(TCA) 交会距离 交会风险概率(CRP) 交会风险指数(CRI) 操作
CDM_260829-102106-273806-659421
2026-08-29T
10:21:36+0000
0.305 km
远距离
3.749611E-4 高风险 0.86
CDM_260905-061405-709106-659421
2026-09-05T
06:14:08+0000
0.436 km
远距离
1.238889E-4 高风险 0.77
CDM_260905-020906-401806-659421
2026-09-05T
02:09:06+0000
0.602 km
远距离
6.546962E-5 中风险 0.71
CDM_260829-084706-273806-659421
2026-08-29T
08:47:27+0000
1.174 km
极远距离
9.937082E-6 低风险 0.55
CDM_260905-100905-709106-659421
2026-09-05T
10:09:31+0000
1.134 km
极远距离
6.493302E-6 低风险 0.51
CDM_260905-111006-408506-659421
2026-09-05T
11:10:11+0000
1.518 km
极远距离
4.92917E-6 低风险 0.49
CDM_260905-040505-777406-659421
2026-09-05T
04:05:54+0000
1.713 km
极远距离
3.368415E-6 低风险 0.46
CDM_260905-054005-777406-659421
2026-09-05T
05:40:04+0000
1.802 km
极远距离
2.914389E-6 低风险 0.44
CDM_260905-034306-401806-659421
2026-09-05T
03:43:15+0000
1.697 km
极远距离
2.267447E-6 低风险 0.42
CDM_260827-204805-777406-659421
2026-08-27T
20:48:05+0000
2.541 km
极远距离
1.339559E-6 低风险 0.38